Regional Weather Roundup
Issued by NWS Upton, NY

Current Version | Previous Version | Graphics & Text | Print | Product List | Glossary Off
Versions: 1 2 3 4 5 6 7 8 9 10 11 12 13 14 15 16 17 18 19 20 21 22 23 24 25 26 27 28 29 30 31 32 33 34 35 36 37 38 39 40 41 42 43 44 45 46 47 48 49 50
182 ASUS41 KOKX 070104 RWROKX REGIONAL WEATHER ROUNDUP NATIONAL WEATHER SERVICE NEW YORK NY 800 PM EST SAT FEB 06 2016 NOTE: "FAIR" INDICATES FEW OR NO CLOUDS BELOW 12,000 FEET WITH NO SIGNIFICANT WEATHER AND/OR OBSTRUCTIONS TO VISIBILITY. NYZ071-072-176-178-NJZ106-104-070200- NEW YORK CITY METRO AREA CITY SKY/WX TMP DP RH WIND PRES REMARKS CENTRAL PARK CLEAR 39 19 44 SW8 30.31S WCI 33 LAGUARDIA APRT MOCLDY 39 20 46 SW8 30.29S WCI 33 KENNEDY INTL PTCLDY 37 23 56 SW13 30.31S WCI 29 NEWARK/LIBERTY PTCLDY 37 23 56 S5 30.30S WCI 33 BRNX BOT. GARD N/A 37 19 48 SW20 30.30S WCI 27 TETERBORO CLEAR 34 21 59 S3 30.28S $$ NYZ177-179-078>081-070200- LONG ISLAND NEW YORK CITY SKY/WX TMP DP RH WIND PRES REMARKS FARMINGDALE CLEAR 35 24 64 W5 30.30S WCI 31 ISLIP PTCLDY 35 27 72 SW6 30.28S WCI 30 SHIRLEY CLEAR 34 27 75 S5 30.31S WCI 30 RIVERHEAD N/A 32 25 74 SW1 30.32S WESTHAMPTON CLEAR 29 23 78 CALM 30.31F EAST HAMPTON FAIR 31 26 83 CALM 30.30S MONTAUK POINT N/A 36 28 73 SW5 30.31S WCI 32 $$ NYZ052-065-067-070200- HUDSON VALLEY CITY SKY/WX TMP DP RH WIND PRES REMARKS WHITE PLAINS CLEAR 34 19 54 CALM 30.26S NEWBURGH CLEAR 34 19 55 W6 30.25R WCI 29 MONTGOMERY CLEAR 32 19 58 S3 30.24R POUGHKEEPSIE CLEAR 37 17 44 S3 30.25S ALBANY MOCLDY 38 17 42 S9 30.20S WCI 31 $$ NJZ001-105-106-008-010-013-015-019>022-104-070200- NEW JERSEY CITY SKY/WX TMP DP RH WIND PRES REMARKS NEWARK/LIBERTY PTCLDY 37 23 56 S5 30.30S WCI 33 TETERBORO CLEAR 34 21 59 S3 30.28S CALDWELL CLEAR 32 21 64 CALM 30.29S MORRISTOWN PTCLDY 30 23 74 CALM 30.29S SOMERVILLE CLEAR 28 21 75 CALM 30.28S SUSSEX CLEAR 30 20 66 CALM 30.26R ANDOVER N/A 28 21 75 CALM 30.26S TRENTON PTCLDY 34 20 56 S3 30.29S MILLVILLE PTCLDY 28 25 88 CALM 30.32S ATLANTIC CITY PTCLDY 33 26 75 S5 30.32F WCI 29 WRIGHTSTOWN PTCLDY 32 26 81 S2 30.28S TOMS RIVER CLEAR 28 25 86 CALM 30.32S BELMAR CLEAR 36 18 48 SW6 30.30S WCI 31 $$ PAZ047>061-062-071-070200- EASTERN PENNSYLVANIA CITY SKY/WX TMP DP RH WIND PRES REMARKS PHILADELPHIA PTCLDY 37 24 59 S7 30.32R WCI 32 ALLENTOWN CLEAR 28 19 69 SW5 30.27S WCI 23 SCRANTON PTCLDY 33 18 53 S5 30.21S WCI 29 $$ CTZ002-004>006-009-010-012-RIZ004-006-007-MAZ004-011-015-070200- SOUTHERN NEW ENGLAND IN CT CITY SKY/WX TMP DP RH WIND PRES REMARKS BRADLEY INTL CLEAR 30 22 72 S8 30.26S WCI 22 HARTFORD CLEAR 32 24 72 S3 30.28S DANBURY CLEAR 34 17 50 SW6 30.27S WCI 29 WTRBRY/OXFORD PTCLDY 30 16 55 CALM 30.26S BRIDGEPORT CLEAR 36 28 73 SW10 30.29S WCI 28 MERIDEN PTCLDY 26 21 81 CALM 30.29R NEW HAVEN PTCLDY 36 27 69 SW7 30.28S WCI 30 CHESTER FAIR 32 28 86 SW6 30.28S WCI 26 GROTON PTCLDY 36 30 79 SW12 30.29F WCI 28 WILLIMANTIC PTCLDY 25 21 85 CALM 30.28F FOG IN RI CITY SKY/WX TMP DP RH WIND PRES REMARKS PROVIDENCE MOCLDY 32 25 75 SW9 30.29F WCI 24 BLOCK ISLAND PTCLDY 36 28 75 SW9 30.29R WCI 29 WESTERLY PTCLDY 35 27 72 SW7 30.30S WCI 29 IN MA CITY SKY/WX TMP DP RH WIND PRES REMARKS BOSTON PTCLDY 31 24 75 SW15 30.26F WCI 20 WORCESTER CLEAR 26 20 77 SW9 30.21S WCI 17 WESTFIELD CLEAR 30 21 69 S9 30.25R WCI 22 PROVINCETOWN PTCLDY 34 27 75 SW14 30.29F WCI 25 NANTUCKET PTCLDY 38 29 70 SW14 30.31F WCI 30 $$ ANZ330-335-338-340-345-350-353-355-070200- COASTAL MARINE OBSERVATIONS STATION/POSITION TIME SKY/WX TEMP WIND PRES VSBY WAVE AIR SEA DIR/SP/G HT/PER (UTC) (F) (DEG/KT/KT) (MB) (MI) (FT/S) NY HARB ENTRANCE 0050 40 44 230/ 14/ 16 1025.6 3/ 9 4S FIRE IS NOT AVBL 20S FIRE ISLAND 2350 40 44 230/ 14/ 17 1026.1 3/10 GREAT SOUTH BAY NOT AVBL 23SW MTP 0050 40 46 230/ 14/ 17 1025.7 3/ 4 HUDSON CANYON 2350 42 51 1026.5 3/10 KINGS POINT 0000 39 39 240/ 8/ 9 1025.3 EXECUTION ROCKS NOT AVBL CENTRAL LI SOUND 0000 37 220/ 14/ 16 N/A 2/ 4 EASTERN LI SOUND 0000 38 41 240/ 14/ 17 N/A ROBBINS REEF 0000 39 210/ 9/ 10 1025.2 $$ >>>>>>>>>>>>>>>>>>>>>>>>>>>> KEY <<<<<<<<<<<<<<<<<<<<<<<<<<< > < > SKY/WX - SKY CONDITION/PRESENT WEATHER < > TMP - TEMPERATURE IN FAHRENHEIT < > DP - DEWPOINT IN FAHRENHEIT < > RH - RELATIVE HUMIDITY IN PERCENT < > WIND - DIRECTION AND SPEED IN MPH < > PRES - MEAN SEA LEVEL PRESSURE IN INCHES OF HG < > WCI - WIND CHILL INDEX < > VSB - VISIBILITY IN MILES < > HX - HEAT INDEX < > TC - TEMPERATURE IN CELSIUS < > VRB - VARIABLE WIND DIRECTION < > < >>>>>>>>>>>>>>>>>>>>>>>>>>>> KEY <<<<<<<<<<<<<<<<<<<<<<<<<<<

USA.gov is the U.S. government's official web portal to all federal, state and local government web resources and services.